Location: Mahannah Oil Field
(37.4664°N, 96.6003°W)
Time: 00:46:58
(UTC+00:00)

A-11 Canister half - Pass Details

Date: 30 January 2021
Orbit: 1525 x 1684 km, 47.3° (Epoch: 03 March)

Event Time Altitude Azimuth Distance (km) Brightness Sun altitude
Rises 00:44:50 0° 300° (WNW) 4,721 12.3 -11.6°
Reaches altitude 10° 00:47:53 10° 302° (WNW) 3,753 11.7 -12.2°
Maximum altitude 00:57:27 75° 28° (NNE) 1,650 9.0 -14.1°
Enters shadow 01:06:46 12° 113° (ESE) 3,696 10.5 -15.9°
